This is the latest recevied weather packets stored in our database for station/object W2DRT. If no packets are shown the sender has not sent any weather packets the latest 10 day(s).
| Time | Temp. | Humidity | Pressure | Rain* | Wind** | Luminosity | Snow |
|---|---|---|---|---|---|---|---|
| 1777749559 | 16.67° C | 40% | 1011.9 hPa | - | - | - | - |
| 1777748955 | 16.11° C | 41% | 1012.3 hPa | - | - | - | - |
| 1777748354 | 16.67° C | 40% | 1012.3 hPa | - | - | - | - |
| 1777747151 | 15.56° C | 44% | 1012.3 hPa | - | - | - | - |
| 1777746548 | 16.11° C | 43% | 1012.6 hPa | - | - | - | - |
| 1777745946 | 15.56° C | 44% | 1012.6 hPa | - | - | - | - |
| 1777745343 | 15.56° C | 45% | 1012.9 hPa | - | - | - | - |
| 1777744741 | 15.56° C | 48% | 1012.9 hPa | - | - | - | - |
| 1777744139 | 15.56° C | 49% | 1012.9 hPa | - | - | - | - |
| 1777743538 | 15° C | 47% | 1012.9 hPa | - | - | - | - |
| 1777742933 | 15.56° C | 48% | 1012.9 hPa | - | - | - | - |
| 1777742332 | 15.56° C | 51% | 1012.9 hPa | - | - | - | - |
| 1777741731 | 15° C | 51% | 1012.9 hPa | - | - | - | - |
| 1777741130 | 15° C | 53% | 1012.9 hPa | - | - | - | - |
| 1777740524 | 14.44° C | 56% | 1012.9 hPa | - | - | - | - |
| 1777739923 | 13.89° C | 58% | 1013.3 hPa | - | - | - | - |
| 1777739323 | 13.89° C | 59% | 1013.6 hPa | - | - | - | - |
| 1777738723 | 13.33° C | 60% | 1013.6 hPa | - | - | - | - |
| 1777738123 | 13.89° C | 58% | 1014 hPa | - | - | - | - |
| 1777736919 | 13.89° C | 59% | 1013.3 hPa | - | - | - | - |
| 1777736310 | 13.89° C | 61% | 1013.6 hPa | - | - | - | - |
| 1777735710 | 13.33° C | 62% | 1013.6 hPa | - | - | - | - |
| 1777735105 | 12.78° C | 62% | 1013.6 hPa | - | - | - | - |
| 1777734506 | 12.78° C | 63% | 1013.3 hPa | - | - | - | - |
| 1777733904 | 12.78° C | 64% | 1013.6 hPa | - | - | - | - |
* Rain since midnight (hover to see other rain measurements)
** Current wind speed in m/s (hover to see current wind gust speed)